NSS-9

Last updated on Sun Apr 12 2026 00:02:51 GMT+0000 (Coordinated Universal Time)

1 33749U 09008A 26101.52128093 .00000074 00000+0 00000+0 0 9992 2 33749 1.0882 83.2292 0002266 289.1378 198.1088 1.00270940 62856
UTC large
Height (km)
Speed (km/s)
/
Latitude / Longitude
Inclination (degrees)
Orbital Period (minutes)
Azimuth
Elevation
Range (km)
Doppler Factor

Next 0 passes for location: London (51.5072 / 0.1276)

Sorry there are no passes over London.
NSS-9